Cloud_Cover
0 0 1 0 0 0 0 0 0 0 0 0 0 0 0 0 0 0 0 0 0 0 0 0 0 0 0 0 0 4 5 40 81 100 100 95 100 71 32 30 88 100 100 100
0 0 3 0 0 0 0 0 0 0 0 0 0 0 0 0 0 0 0 0 0 0 0 0 0 0 0 0 0 0 0 0 8 0 69 100 100 37 75 11 79 12 29 100
0 0 0 0 0 0 0 0 0 0 0 0 0 0 0 0 0 0 0 0 0 0 0 0 0 0 0 0 0 0 0 0 1 1 10 29 14 100 100 100 56 16 59 62
0 3 4 0 0 0 0 0 0 0 0 0 0 0 0 0 0 0 0 0 0 0 0 0 0 0 0 0 0 0 0 0 7 3 4 8 2 2 26 100 100 100 100 100
0 30 6 7 1 0 0 0 3 2 3 5 0 0 0 0 0 0 0 0 0 0 0 0 0 0 0 0 0 0 7 4 15 44 14 24 8 1 26 5 0 20 100 100
20 94 100 95 62 24 46 3 0 5 5 3 5 4 5 83 8 3 64 0 0 0 0 0 0 0 0 0 0 54 80 97 83 64 84 45 10 55 14 40 18 7 12 31
44 32 78 2 5 10 2 5 5 56 78 2 21 77 53 97 20 2 64 0 0 0 0 0 0 0 0 0 0 2 78 52 68 100 100 100 49 81 98 10 88 50 91 61
78 100 75 50 5 100 100 98 100 100 100 100 100 77 99 3 3 0 8 0 0 0 0 0 0 0 0 0 0 0 0 3 49 24 52 56 99 92 100 58 92 100 100 100
72 100 41 56 89 20 91 100 100 100 23 100 100 100 100 7 78 70 7 0 4 5 0 0 0 0 0 0 0 0 2 1 0 1 26 83 100 100 72 67 56 100 100 100
58 62 29 36 26 3 82 100 88 100 100 100 100 100 100 99 79 40 24 5 3 5 4 0 0 0 0 0 0 0 0 0 0 0 0 6 99 52 98 83 48 100 100 100
22 81 100 15 10 27 78 8 47 100 94 100 100 100 100 99 100 100 98 54 16 34 1 3 0 0 0 0 0 0 0 2 0 0 0 0 0 23 11 90 100 100 100 100
95 75 100 100 87 2 3 100 100 60 87 47 97 100 100 100 100 100 100 100 89 100 100 88 61 6 5 4 0 0 0 0 0 0 0 0 0 0 0 31 27 100 100 100
100 99 68 100 90 93 30 71 98 100 94 68 99 63 87 94 100 100 100 8 5 98 74 98 54 86 62 22 5 5 1 4 5 5 1 0 0 0 0 0 0 16 96 100
100 100 100 100 100 100 100 98 82 100 100 40 100 100 90 100 100 92 40 40 94 98 99 100 100 92 16 87 25 5 5 5 4 18 14 5 4 3 5 2 9 10 16 99
100 100 100 100 100 100 100 100 100 100 100 100 95 100 100 100 94 100 96 5 15 40 58 89 57 87 40 27 5 5 5 5 1 4 5 56 43 60 23 5 52 84 76 41
100 100 100 100 100 100 88 100 100 100 100 100 100 100 100 100 17 31 5 38 85 5 5 5 5 5 3 0 5 3 2 3 5 5 5 85 55 6 86 94 90 77 100 100
68 100 100 100 93 81 100 100 83 93 100 100 100 100 98 90 54 98 94 90 21 73 35 5 5 5 5 5 2 5 0 0 0 4 5 50 100 73 18 88 100 100 100 83
100 100 100 100 100 97 100 34 4 0 8 100 82 99 100 100 100 100 98 78 94 60 5 5 5 5 5 5 5 5 5 1 0 0 0 0 2 16 39 4 99 100 98 100
96 94 100 94 100 98 100 90 4 5 29 5 77 97 100 95 91 69 32 9 21 5 5 6 5 8 9 1 2 6 6 5 3 0 0 1 0 1 8 89 14 100 100 100
60 100 99 100 93 34 100 42 5 5 49 98 80 97 99 96 100 100 100 83 35 9 30 2 7 5 5 10 20 37 20 15 5 5 0 0 4 0 0 15 15 1 82 100
60 95 100 97 97 93 100 91 5 5 88 98 87 99 100 100 100 23 16 42 11 5 58 6 15 5 28 80 100 64 48 86 16 16 6 5 5 20 1 0 0 13 61 100
100 98 99 100 100 72 88 8 32 95 99 94 97 85 100 100 98 93 100 85 20 52 10 97 6 10 28 57 92 100 97 94 60 45 38 30 8 5 5 7 0 0 3 27
77 92 88 98 99 84 69 45 72 27 5 88 100 100 100 99 75 19 97 49 86 100 14 100 98 100 93 99 100 100 97 100 60 100 100 19 35 100 88 23 4 0 0 0
98 87 86 67 97 100 97 100 82 54 100 96 100 94 87 89 100 100 79 19 100 83 100 100 97 100 36 88 100 100 100 94 88 18 35 37 41 55 100 94 41 75 2 19
88 90 33 27 54 80 98 100 59 68 69 100 100 100 100 100 100 100 96 17 84 90 100 100 100 77 84 100 39 95 89 53 30 5 97 28 70 99 100 77 72 99 62 64
15 9 18 49 72 87 87 62 96 100 100 100 100 92 98 100 100 100 100 97 100 95 15 98 100 100 98 96 48 100 87 86 75 78 33 42 7 8 85 8 96 73 98 100